This demonstration page uses our WeatherBlox Daily Observations layout. Learn more.

Left ArrowRight Arrow

Hourly Observations for December 3, 2020

Temp ( °F °C ) Dew Point ( °F °C ) Humidity (%) Winds ( mph kmh ) Pressure ( in mb ) Visibility ( mi km ) Precip ( " mm )
12:03 am 00:03 Cloudy 28 -2.2 24 -4.4 85 85 N 14 22 30.45 1031 10 16.0934 0 0
12:54 am 00:54 Cloudy 29 -1.7 24 -4.4 82 82 N 12 19 30.4 1030 10 16.0934 0 0
1:08 am 01:08 Cloudy 30 -1.1 24 -4.4 79 79 N 12 19 30.44 1031 10 16.0934 0 0
1:54 am 01:54 Cloudy 30 -1.1 24 -4.4 79 79 N 13 20 30.4 1030 10 16.0934 0 0
2:54 am 02:54 Cloudy 30 -1.1 24 -4.4 79 79 NNW 8 13 30.39 1029 10 16.0934 0 0
3:24 am 03:24 Partly Cloudy 28 -2.2 23 -5 81 81 Calm 30.42 1030 10 16.0934 0 0
3:54 am 03:54 Clear 27 -2.8 23 -5 85 85 W 3 6 30.37 1028 10 16.0934 0 0
4:54 am 04:54 Clear 25 -3.9 21 -6.1 85 85 WNW 3 6 30.36 1028 9 14.48406 0 0
5:54 am 05:54 Clear 18 -7.8 15 -9.4 88 88 N 5 7 30.37 1029 9 14.48406 0 0
6:54 am 06:54 Clear 18 -7.8 15 -9.4 88 88 Calm 30.36 1028 7 11.26538 0 0
7:54 am 07:54 Sunny with Mist and Fog 20 -6.7 18 -7.8 92 92 Calm 30.36 1028 4 6.43736 0 0
8:54 am 08:54 Sunny with Mist and Fog 26 -3.3 23 -5 88 88 SSW 6 9 30.35 1028 6 9.65604 0 0
9:54 am 09:54 Sunny 31 -0.6 25 -3.9 79 79 WSW 3 6 30.34 1027 10 16.0934 0 0
10:54 am 10:54 Sunny 37 2.8 27 -2.8 67 67 W 5 7 30.32 1027 10 16.0934 0 0
11:54 am 11:54 Sunny 43 6.1 26 -3.3 51 51 W 6 9 30.28 1025 10 16.0934 0 0
12:54 pm 12:54 Sunny 46 7.8 23 -5 40 40 WNW 10 17 30.22 1024 10 16.0934 0 0
1:54 pm 13:54 Sunny 47 8.3 24 -4.4 41 41 WNW 12 19 30.19 1022 10 16.0934 0 0
2:54 pm 14:54 Sunny 47 8.3 21 -6.1 36 36 W 12 19 30.19 1022 10 16.0934 0 0
3:54 pm 15:54 Sunny 46 7.8 20 -6.7 35 35 W 10 17 30.17 1022 10 16.0934 0 0
4:54 pm 16:54 Sunny 43 6.1 20 -6.7 40 40 W 6 9 30.16 1022 10 16.0934 0 0
5:54 pm 17:54 Clear 36 2.2 19 -7.2 50 50 Calm 30.17 1022 10 16.0934 0 0
6:54 pm 18:54 Clear 36 2.2 18 -7.8 48 48 Calm 30.16 1021 10 16.0934 0 0
7:54 pm 19:54 Clear 31 -0.6 17 -8.3 56 56 Calm 30.16 1021 10 16.0934 0 0
8:54 pm 20:54 Clear 29 -1.7 17 -8.3 61 61 Calm 30.15 1021 10 16.0934 0 0
9:54 pm 21:54 Clear 30 -1.1 17 -8.3 58 58 Calm 30.14 1021 10 16.0934 0 0
10:54 pm 22:54 Clear 27 -2.8 17 -8.3 66 66 Calm 30.12 1020 10 16.0934 0 0
11:54 pm 23:54 Clear 28 -2.2 17 -8.3 63 63 Calm 30.12 1020 10 16.0934 0 0

Powered by AerisWeather